Pula, Croatia

8:51 AM CEST on August 20, 2017 (GMT +0200)
Pula

Weather History for LDPL - April, 2014

Change the Weather History Date:

Saturday, April 19, 2014

  Actual Average Record
Temperature  
Mean Temperature 54 °F -  
Max Temperature 66 °F - - ()
Min Temperature 42 °F - - ()
Degree Days  
Heating Degree Days 11    
Growing Degree Days 4 (Base 50)    
Moisture  
Dew Point 46 °F    
Average Humidity 63    
Maximum Humidity 88    
Minimum Humidity 31    
Precipitation  
Precipitation 0.00 in - - ()
Sea Level Pressure  
Sea Level Pressure 29.69 in    
Wind  
Wind Speed 7 mph ()    
Max Wind Speed 15 mph    
Max Gust Speed -    
Visibility 6.9 miles    
Events      
T = Trace of Precipitation, MM = Missing Value Source: Averaged Metar Reports

Daily Weather History Graph

Daily Weather History Graph

Search for Another Location

Airport or City:

Trip Planner

Search our weather history database for the weather conditions in past years. The results will help you decide how hot, cold, wet, or windy it might be!

Date:

Astronomy

Apr. 19, 2014 Rise Set
Actual Time 6:13 AM CEST 7:54 PM CEST
Civil Twilight 5:42 AM CEST 8:25 PM CEST
Nautical Twilight 5:04 AM CEST 9:03 PM CEST
Astronomical Twilight 4:24 AM CEST 9:44 PM CEST
Moon No Moon Rise 9:09 AM CEST (4/19)
Length of Visible Light 14h 42m
Length of Day
13h 40m
Waning Gibbous, 81% of the Moon is Illuminated
Apr 19
Waning Gibbous
Apr 22
Last Quarter
Apr 29
New
May 7
First Quarter
May 14
Full

Hourly Weather History & Observations

Time (CEST) Temp. Windchill Dew Point Humidity Pressure Visibility Wind Dir Wind Speed Gust Speed Precip Events Conditions
12:00 AM 48.2 °F - 42.8 °F 82% 29.68 in - Variable 1.2 mph - N/A   Clear
12:30 AM 44.6 °F 43.1 °F 41.0 °F 87% 29.68 in - Variable 3.5 mph - N/A   Clear
1:00 AM 50.0 °F - 44.6 °F 82% 29.68 in - East 8.1 mph - N/A   Clear
1:30 AM 53.6 °F - 44.6 °F 72% 29.68 in - East 8.1 mph - N/A   Clear
2:00 AM 54 °F - 46 °F 67% 29.68 in 25 mi East 6.7 mph - -   Scattered Clouds
2:00 AM 53.6 °F - 46.4 °F 77% 29.65 in - East 6.9 mph - N/A   Clear
2:30 AM 55.4 °F - 46.4 °F 72% 29.65 in - East 8.1 mph - N/A   Clear
3:00 AM 55.4 °F - 46.4 °F 72% 29.65 in - East 8.1 mph - N/A   Clear
3:30 AM 53.6 °F - 46.4 °F 77% 29.65 in - East 6.9 mph - N/A   Clear
4:00 AM 55.4 °F - 46.4 °F 72% 29.65 in - ENE 6.9 mph - N/A   Clear
4:30 AM 57.2 °F - 48.2 °F 72% 29.65 in - East 9.2 mph - N/A   Clear
5:00 AM 57 °F - 48 °F 64% 29.67 in 25 mi East 11.2 mph - -   Scattered Clouds
5:00 AM 57.2 °F - 48.2 °F 72% 29.65 in 6.2 mi East 11.5 mph - N/A   Partly Cloudy
5:30 AM 57.2 °F - 46.4 °F 67% 29.65 in 6.2 mi East 11.5 mph - N/A   Partly Cloudy
6:00 AM 57 °F - 45 °F 55% 29.68 in 25 mi ENE 13.4 mph - -   Scattered Clouds
6:00 AM 57.2 °F - 44.6 °F 63% 29.65 in 6.2 mi ENE 12.7 mph - N/A   Partly Cloudy
6:30 AM 57.2 °F - 42.8 °F 59% 29.68 in 6.2 mi ENE 10.4 mph - N/A   Partly Cloudy
7:00 AM 57 °F - 44 °F 51% 29.70 in 25 mi East 13.4 mph - -   Scattered Clouds
7:00 AM 57.2 °F - 44.6 °F 63% 29.68 in 6.2 mi East 12.7 mph - N/A   Partly Cloudy
7:30 AM 57.2 °F - 42.8 °F 59% 29.68 in 6.2 mi East 10.4 mph - N/A   Partly Cloudy
8:00 AM 58 °F - 44 °F 49% 29.70 in 25 mi East 8.9 mph - -   Scattered Clouds
8:00 AM 59.0 °F - 44.6 °F 59% 29.68 in 6.2 mi East 9.2 mph - N/A   Partly Cloudy
8:30 AM 59.0 °F - 46.4 °F 63% 29.68 in 6.2 mi ENE 8.1 mph - N/A   Partly Cloudy
9:00 AM 59.0 °F - 41.0 °F 51% 29.68 in 6.2 mi ENE 15.0 mph - N/A   Partly Cloudy
9:30 AM 60.8 °F - 41.0 °F 48% 29.68 in 6.2 mi East 13.8 mph - N/A   Partly Cloudy
10:00 AM 62.6 °F - 41.0 °F 45% 29.71 in 6.2 mi ENE 13.8 mph - N/A   Partly Cloudy
10:30 AM 64.4 °F - 41.0 °F 42% 29.71 in 6.2 mi East 11.5 mph - N/A   Partly Cloudy
11:00 AM 63 °F - 40 °F 31% 29.72 in 25 mi East 13.4 mph - -   Scattered Clouds
11:00 AM 62.6 °F - 39.2 °F 42% 29.71 in 6.2 mi East 13.8 mph - N/A   Partly Cloudy
11:30 AM 62.6 °F - 41.0 °F 45% 29.71 in 6.2 mi East 11.5 mph - N/A   Partly Cloudy
12:00 PM 62.6 °F - 41.0 °F 45% 29.71 in 6.2 mi East 11.5 mph - N/A   Partly Cloudy
12:30 PM 62.6 °F - 42.8 °F 48% 29.71 in 6.2 mi East 9.2 mph - N/A   Partly Cloudy
1:00 PM 62.6 °F - 46.4 °F 55% 29.71 in 6.2 mi East 9.2 mph - N/A   Partly Cloudy
1:30 PM 62.6 °F - 44.6 °F 52% 29.71 in 6.2 mi East 10.4 mph - N/A   Partly Cloudy
2:00 PM 64 °F - 44 °F 38% 29.73 in 25 mi East 8.9 mph - -   Partly Cloudy
2:00 PM 64.4 °F - 44.6 °F 49% 29.71 in 6.2 mi East 9.2 mph - N/A   Partly Cloudy
2:30 PM 64.4 °F - 44.6 °F 49% 29.71 in 6.2 mi East 8.1 mph - N/A   Partly Cloudy
3:00 PM 62.6 °F - 44.6 °F 52% 29.71 in 6.2 mi ESE 5.8 mph - N/A   Partly Cloudy
3:30 PM 62.6 °F - 44.6 °F 52% 29.71 in 6.2 mi ESE 4.6 mph - N/A   Partly Cloudy
4:00 PM 62.6 °F - 42.8 °F 48% 29.71 in 6.2 mi Variable 3.5 mph - N/A   Partly Cloudy
4:30 PM 62.6 °F - 48.2 °F 59% 29.71 in 6.2 mi Variable 3.5 mph - N/A   Partly Cloudy
5:00 PM 62 °F - 46 °F 46% 29.71 in 25 mi ESE 4.5 mph - -   Scattered Clouds
5:00 PM 62.6 °F - 46.4 °F 55% 29.71 in 6.2 mi ESE 4.6 mph - N/A   Partly Cloudy
5:30 PM 60.8 °F - 48.2 °F 63% 29.71 in 6.2 mi Variable 3.5 mph - N/A   Partly Cloudy
6:00 PM 60.8 °F - 48.2 °F 63% 29.71 in 6.2 mi Variable 2.3 mph - N/A   Partly Cloudy
6:30 PM 60.8 °F - 48.2 °F 63% 29.71 in 6.2 mi Variable 3.5 mph - N/A   Partly Cloudy
7:00 PM 60.8 °F - 50.0 °F 68% 29.71 in 6.2 mi East 4.6 mph - N/A   Partly Cloudy
7:30 PM 59.0 °F - 50.0 °F 72% 29.71 in 6.2 mi Variable 2.3 mph - N/A   Partly Cloudy
8:00 PM 56 °F - 49 °F 71% 29.72 in 19 mi East 4.5 mph - -   Scattered Clouds
8:00 PM 57.2 °F - 50.0 °F 77% 29.71 in 6.2 mi East 4.6 mph - N/A   Partly Cloudy
8:30 PM 55.4 °F - 50.0 °F 82% 29.71 in 6.2 mi East 4.6 mph - N/A   Partly Cloudy
9:00 PM 55.4 °F - 50.0 °F 82% 29.71 in 6.2 mi East 5.8 mph - N/A   Partly Cloudy
9:30 PM 55.4 °F - 50.0 °F 82% 29.71 in 6.2 mi East 6.9 mph - N/A   Partly Cloudy
10:00 PM 55.4 °F - 50.0 °F 82% 29.71 in 6.2 mi ENE 6.9 mph - N/A   Partly Cloudy
10:30 PM 55.4 °F - 50.0 °F 82% 29.71 in 6.2 mi ENE 5.8 mph - N/A   Partly Cloudy
11:00 PM 54 °F - 50 °F 82% 29.73 in 19 mi East 6.7 mph - -   Mostly Cloudy
11:00 PM 53.6 °F - 50.0 °F 88% 29.71 in - East 6.9 mph - N/A   Clear
11:30 PM 53.6 °F - 50.0 °F 88% 29.71 in - ENE 4.6 mph - N/A   Clear